LiveATC.Net - Listen to live air traffic control over the Internet!


ICAO: S05  IATA: S05   Airport: Bandon State Airport
City: Bandon   State/Province: Oregon
Country: United States   Continent: North America
KOTH METAR Weather: KOTH 241156Z AUTO 10008KT 10SM CLR 14/04 A2996 RMK AO2 SLP144 T01440044 10156 20117 56007
S05 Flight Activity (FlightAware)
S05 CTAF
Feed Status: UP   Listeners: 0
Listen right in your browser - requires Flash (in browser, requires Flash)
Click here to listen with your own player (launches your MP3 player)
S05 CTAF Audio Archives
FacilityFrequency
Bandon CTAF122.800


NOTICE

Unauthorized use prohibited. See LiveATC.net Terms of Service


Find LiveATC Audio Streams


Airport/ARTCC Code

Frequency Search
(e.g., 124.400, 128.75)
Site-wide search
 


Browse LiveATC Feeds
LiveATC Coverage Map
Top 50 LiveATC Feeds
Bad Weather Areas

LiveATC FAQ
Offer a LiveATC Feed
Contact LiveATC.net
Press Inquiries

LiveATC on iPhone
LiveATC on Android

Windows Phone
Windows 8/10

LiveATC Mobile
(Mobile browser)

ATC Audio Archives
Interesting Recordings

LiveATC Forums


Home Page
About LiveATC.net
Make a Donation
Terms of Use
Privacy Policy

Canadian Air Freqs

AIRMETs/SIGMETs

FAA Airport Status
Nat'l Airspace Status
Arrival Demand Charts


Server Software By:
Icecast.org
Liquidsoap